Time,TemperatureF,DewpointF,PressureIn,WindDirection,WindDirectionDegrees,WindSpeedMPH,WindSpeedGustMPH,Humidity,HourlyPrecipIn,Conditions,Clouds,dailyrainin,SoftwareType,DateUTC
2013-04-11 00:02:00,30.0,21.0,30.12,NNE,30,0.0,2.0,68,0.00,,,0.00,,2013-04-11 05:02:00,
2013-04-11 00:13:00,30.0,21.0,30.12,NNE,30,0.0,2.0,68,0.00,,,0.00,,2013-04-11 05:13:00,
2013-04-11 00:22:00,30.0,21.0,30.11,East,100,0.0,3.0,68,0.00,,,0.00,,2013-04-11 05:22:00,
2013-04-11 00:32:00,30.0,21.0,30.11,East,79,0.0,3.0,70,0.00,,,0.00,,2013-04-11 05:32:00,
2013-04-11 00:42:00,30.0,21.0,30.11,East,79,0.0,3.0,70,0.00,,,0.00,,2013-04-11 05:42:00,
2013-04-11 00:52:00,30.0,21.0,30.11,ENE,58,0.0,3.0,70,0.00,,,0.00,,2013-04-11 05:52:00,
2013-04-11 01:02:00,30.0,21.0,30.11,ENE,58,0.0,3.0,70,0.00,,,0.00,,2013-04-11 06:02:00,
2013-04-11 01:12:00,30.0,21.0,30.11,ENE,58,0.0,3.0,70,0.00,,,0.00,,2013-04-11 06:12:00,
2013-04-11 01:22:00,30.0,22.0,30.09,East,88,0.0,4.0,72,0.00,,,0.00,,2013-04-11 06:22:00,
2013-04-11 01:32:00,30.0,22.0,30.08,NE,43,1.0,4.0,73,0.00,,,0.00,,2013-04-11 06:32:00,
2013-04-11 01:42:00,30.0,22.0,30.08,NE,43,1.0,4.0,73,0.00,,,0.00,,2013-04-11 06:42:00,
2013-04-11 01:52:00,31.0,23.0,30.07,NE,47,1.0,4.0,73,0.00,,,0.00,,2013-04-11 06:52:00,
2013-04-11 02:02:00,31.0,23.0,30.07,East,89,0.0,5.0,73,0.00,,,0.00,,2013-04-11 07:02:00,
2013-04-11 02:12:00,31.0,23.0,30.07,East,89,0.0,5.0,73,0.00,,,0.00,,2013-04-11 07:12:00,
2013-04-11 02:22:00,31.0,23.0,30.08,ENE,77,1.0,3.0,73,0.00,,,0.00,,2013-04-11 07:22:00,
2013-04-11 02:32:00,31.0,23.0,30.08,ENE,66,0.0,4.0,73,0.00,,,0.00,,2013-04-11 07:32:00,
2013-04-11 02:42:00,31.0,23.0,30.08,ENE,66,0.0,4.0,73,0.00,,,0.00,,2013-04-11 07:42:00,
2013-04-11 02:52:00,30.0,22.0,30.06,NE,50,0.0,6.0,73,0.00,,,0.00,,2013-04-11 07:52:00,
2013-04-11 03:03:00,30.0,22.0,30.06,SSE,163,2.0,5.0,73,0.00,,,0.00,,2013-04-11 08:03:00,
2013-04-11 03:12:00,30.0,22.0,30.06,SSE,163,2.0,5.0,73,0.00,,,0.00,,2013-04-11 08:12:00,
2013-04-11 03:22:00,30.0,23.0,30.06,NE,35,1.0,7.0,74,0.00,,,0.00,,2013-04-11 08:22:00,
2013-04-11 03:32:00,30.0,23.0,30.06,NE,38,1.0,6.0,76,0.00,,,0.00,,2013-04-11 08:32:00,
2013-04-11 03:42:00,30.0,23.0,30.06,NE,38,1.0,6.0,76,0.00,,,0.00,,2013-04-11 08:42:00,
2013-04-11 03:52:00,30.0,23.0,30.04,ENE,75,1.0,6.0,76,0.00,,,0.00,,2013-04-11 08:52:00,
2013-04-11 04:02:00,29.0,23.0,30.04,ENE,60,1.0,5.0,77,0.00,,,0.00,,2013-04-11 09:02:00,
2013-04-11 04:12:00,29.0,23.0,30.04,ENE,60,1.0,5.0,77,0.00,,,0.00,,2013-04-11 09:12:00,
2013-04-11 04:22:00,29.0,23.0,30.05,SSW,212,1.0,6.0,77,0.00,,,0.00,,2013-04-11 09:22:00,
2013-04-11 04:33:00,29.0,23.0,30.04,East,94,2.0,5.0,77,0.00,,,0.00,,2013-04-11 09:33:00,
2013-04-11 04:43:00,29.0,23.0,30.04,East,94,2.0,5.0,77,0.00,,,0.00,,2013-04-11 09:43:00,
2013-04-11 04:52:00,29.0,23.0,30.05,South,169,1.0,8.0,77,0.00,,,0.00,,2013-04-11 09:52:00,
2013-04-11 05:02:00,29.0,22.0,30.06,ESE,118,1.0,5.0,76,0.00,,,0.00,,2013-04-11 10:02:00,
2013-04-11 05:12:00,29.0,23.0,30.06,NE,47,1.0,5.0,77,0.00,,,0.00,,2013-04-11 10:12:00,
2013-04-11 05:23:00,29.0,23.0,30.06,NE,47,1.0,5.0,77,0.00,,,0.00,,2013-04-11 10:23:00,
2013-04-11 05:32:00,29.0,23.0,30.07,NE,43,1.0,4.0,77,0.00,,,0.00,,2013-04-11 10:32:00,
2013-04-11 05:42:00,29.0,23.0,30.07,NE,43,1.0,4.0,77,0.00,,,0.00,,2013-04-11 10:42:00,
2013-04-11 05:52:00,29.0,23.0,30.07,East,95,0.0,6.0,77,0.00,,,0.00,,2013-04-11 10:52:00,
2013-04-11 06:02:00,29.0,23.0,30.07,East,95,0.0,6.0,77,0.00,,,0.00,,2013-04-11 11:02:00,
2013-04-11 06:12:00,29.0,23.0,30.06,ENE,73,1.0,3.0,77,0.00,,,0.00,,2013-04-11 11:12:00,
2013-04-11 06:23:00,29.0,23.0,30.06,East,83,1.0,6.0,77,0.00,,,0.00,,2013-04-11 11:23:00,
2013-04-11 06:32:00,29.0,23.0,30.07,East,94,1.0,4.0,77,0.00,,,0.00,,2013-04-11 11:32:00,
2013-04-11 06:42:00,29.0,23.0,30.07,East,94,1.0,4.0,77,0.00,,,0.00,,2013-04-11 11:42:00,
2013-04-11 06:52:00,28.0,22.0,30.06,NNE,20,0.0,3.0,77,0.00,,,0.00,,2013-04-11 11:52:00,
2013-04-11 07:02:00,28.0,22.0,30.05,NE,42,1.0,4.0,77,0.00,,,0.00,,2013-04-11 12:02:00,
2013-04-11 07:12:00,28.0,22.0,30.05,NE,42,1.0,4.0,77,0.00,,,0.00,,2013-04-11 12:12:00,
2013-04-11 07:22:00,29.0,22.0,30.05,East,83,1.0,5.0,76,0.00,,,0.00,,2013-04-11 12:22:00,
2013-04-11 07:32:00,29.0,22.0,30.03,East,98,0.0,4.0,75,0.00,,,0.00,,2013-04-11 12:32:00,
2013-04-11 07:42:00,29.0,22.0,30.03,East,98,0.0,4.0,75,0.00,,,0.00,,2013-04-11 12:42:00,
2013-04-11 07:52:00,29.0,22.0,30.03,East,80,2.0,7.0,74,0.00,,,0.00,,2013-04-11 12:52:00,
2013-04-11 08:02:00,30.0,22.0,30.01,North,6,1.0,8.0,73,0.00,,,0.00,,2013-04-11 13:02:00,
2013-04-11 08:12:00,30.0,22.0,30.01,East,82,2.0,10.0,72,0.00,,,0.00,,2013-04-11 13:12:00,
2013-04-11 08:23:00,30.0,22.0,30.01,East,82,2.0,10.0,72,0.00,,,0.00,,2013-04-11 13:23:00,
2013-04-11 08:32:00,31.0,22.0,30.00,SE,139,2.0,8.0,70,0.00,,,0.00,,2013-04-11 13:32:00,
2013-04-11 08:43:00,31.0,22.0,30.00,SE,139,2.0,8.0,70,0.00,,,0.00,,2013-04-11 13:43:00,
2013-04-11 08:52:00,31.0,22.0,30.01,ESE,118,2.0,7.0,69,0.00,,,0.00,,2013-04-11 13:52:00,
2013-04-11 09:02:00,31.0,22.0,30.01,ENE,77,1.0,8.0,68,0.00,,,0.00,,2013-04-11 14:02:00,
2013-04-11 09:12:00,31.0,22.0,30.01,ENE,77,1.0,8.0,68,0.00,,,0.00,,2013-04-11 14:12:00,
2013-04-11 09:22:00,31.0,21.0,30.01,NE,55,3.0,9.0,67,0.00,,,0.00,,2013-04-11 14:22:00,
2013-04-11 09:32:00,31.0,21.0,30.01,ESE,115,2.0,8.0,66,0.00,,,0.00,,2013-04-11 14:32:00,
2013-04-11 09:42:00,31.0,21.0,30.01,ESE,115,2.0,8.0,66,0.00,,,0.00,,2013-04-11 14:42:00,
2013-04-11 09:52:00,31.0,21.0,30.00,NE,44,2.0,11.0,66,0.00,,,0.00,,2013-04-11 14:52:00,
2013-04-11 10:02:00,32.0,21.0,29.96,NNE,18,4.0,10.0,64,0.00,,,0.00,,2013-04-11 15:02:00,
2013-04-11 10:12:00,32.0,21.0,29.96,NNE,18,4.0,10.0,64,0.00,,,0.00,,2013-04-11 15:12:00,
2013-04-11 10:22:00,33.0,21.0,29.99,NE,47,3.0,8.0,62,0.00,,,0.00,,2013-04-11 15:22:00,
2013-04-11 10:32:00,33.0,21.0,29.97,NE,52,3.0,12.0,61,0.00,,,0.00,,2013-04-11 15:32:00,
2013-04-11 10:43:00,33.0,21.0,29.97,NE,52,3.0,12.0,61,0.00,,,0.00,,2013-04-11 15:43:00,
2013-04-11 10:53:00,34.0,22.0,29.98,East,99,3.0,7.0,60,0.00,,,0.00,,2013-04-11 15:53:00,
2013-04-11 11:02:00,33.0,21.0,29.99,NNE,33,4.0,11.0,60,0.00,,,0.00,,2013-04-11 16:02:00,
2013-04-11 11:12:00,33.0,21.0,29.99,NNE,33,4.0,11.0,60,0.00,,,0.00,,2013-04-11 16:12:00,
2013-04-11 11:23:00,33.0,21.0,29.97,East,94,2.0,10.0,61,0.00,,,0.00,,2013-04-11 16:23:00,
2013-04-11 11:32:00,33.0,21.0,29.99,South,172,1.0,8.0,61,0.00,,,0.00,,2013-04-11 16:32:00,
2013-04-11 11:42:00,33.0,21.0,29.99,South,172,1.0,8.0,61,0.00,,,0.00,,2013-04-11 16:42:00,
2013-04-11 11:53:00,33.0,21.0,30.00,ESE,103,2.0,6.0,61,0.00,,,0.00,,2013-04-11 16:53:00,
2013-04-11 12:02:00,33.0,20.0,29.98,East,84,4.0,9.0,58,0.00,,,0.00,,2013-04-11 17:02:00,
2013-04-11 12:12:00,33.0,20.0,29.98,East,84,4.0,9.0,58,0.00,,,0.00,,2013-04-11 17:12:00,
2013-04-11 12:23:00,33.0,20.0,29.97,ENE,72,3.0,9.0,58,0.00,,,0.00,,2013-04-11 17:23:00,
2013-04-11 12:32:00,34.0,20.0,29.97,ENE,70,3.0,9.0,57,0.00,,,0.00,,2013-04-11 17:32:00,
2013-04-11 12:43:00,34.0,20.0,29.97,ENE,70,3.0,9.0,57,0.00,,,0.00,,2013-04-11 17:43:00,
2013-04-11 12:53:00,34.0,20.0,29.95,East,86,3.0,10.0,55,0.00,,,0.00,,2013-04-11 17:53:00,
2013-04-11 13:02:00,34.0,19.0,29.95,ESE,121,2.0,7.0,54,0.00,,,0.00,,2013-04-11 18:02:00,
2013-04-11 13:13:00,34.0,19.0,29.95,ESE,121,2.0,7.0,54,0.00,,,0.00,,2013-04-11 18:13:00,
2013-04-11 13:23:00,34.0,18.0,29.95,NNE,33,2.0,10.0,51,0.00,,,0.00,,2013-04-11 18:23:00,
2013-04-11 13:32:00,34.0,17.0,29.96,East,98,3.0,8.0,49,0.00,,,0.00,,2013-04-11 18:32:00,
2013-04-11 13:42:00,34.0,17.0,29.96,East,98,3.0,8.0,49,0.00,,,0.00,,2013-04-11 18:42:00,
2013-04-11 13:53:00,34.0,16.0,29.95,ESE,107,2.0,7.0,47,0.00,,,0.00,,2013-04-11 18:53:00,
2013-04-11 14:03:00,34.0,15.0,29.95,ENE,67,2.0,6.0,46,0.00,,,0.00,,2013-04-11 19:03:00,
2013-04-11 14:14:00,34.0,15.0,29.95,ENE,67,2.0,6.0,46,0.00,,,0.00,,2013-04-11 19:14:00,
2013-04-11 14:22:00,34.0,14.0,29.95,ENE,67,4.0,7.0,43,0.00,,,0.00,,2013-04-11 19:22:00,
2013-04-11 14:32:00,34.0,13.0,29.95,ENE,58,3.0,7.0,42,0.00,,,0.00,,2013-04-11 19:32:00,
2013-04-11 14:43:00,34.0,13.0,29.95,ENE,58,3.0,7.0,42,0.00,,,0.00,,2013-04-11 19:43:00,
2013-04-11 14:53:00,33.0,12.0,29.94,East,101,5.0,9.0,41,0.00,,,0.00,,2013-04-11 19:53:00,
2013-04-11 15:02:00,33.0,12.0,29.93,NNE,31,2.0,7.0,41,0.00,,,0.00,,2013-04-11 20:02:00,
2013-04-11 15:13:00,33.0,12.0,29.93,NNE,31,2.0,7.0,41,0.00,,,0.00,,2013-04-11 20:13:00,
2013-04-11 15:22:00,33.0,12.0,29.91,ENE,68,3.0,9.0,41,0.00,,,0.00,,2013-04-11 20:22:00,
2013-04-11 15:33:00,34.0,12.0,29.93,NE,39,3.0,12.0,39,0.00,,,0.00,,2013-04-11 20:33:00,
2013-04-11 15:42:00,34.0,12.0,29.93,NE,39,3.0,12.0,39,0.00,,,0.00,,2013-04-11 20:42:00,
2013-04-11 15:52:00,34.0,12.0,29.92,NNW,340,3.0,10.0,39,0.01,,,0.01,,2013-04-11 20:52:00,
2013-04-11 16:02:00,33.0,11.0,29.91,North,353,3.0,10.0,40,0.01,,,0.01,,2013-04-11 21:02:00,
2013-04-11 16:12:00,33.0,11.0,29.91,North,353,3.0,10.0,40,0.01,,,0.01,,2013-04-11 21:12:00,
2013-04-11 16:22:00,33.0,11.0,29.92,ENE,67,2.0,5.0,40,0.01,,,0.01,,2013-04-11 21:22:00,
2013-04-11 16:33:00,33.0,12.0,29.92,ESE,113,3.0,13.0,41,0.01,,,0.01,,2013-04-11 21:33:00,
2013-04-11 16:42:00,33.0,12.0,29.92,ESE,113,3.0,13.0,41,0.01,,,0.01,,2013-04-11 21:42:00,
2013-04-11 16:54:00,33.0,11.0,29.91,SE,131,1.0,11.0,40,0.00,,,0.01,,2013-04-11 21:54:00,
2013-04-11 17:03:00,33.0,12.0,29.92,NE,52,1.0,8.0,41,0.00,,,0.01,,2013-04-11 22:03:00,
2013-04-11 17:13:00,33.0,12.0,29.92,NE,52,1.0,8.0,41,0.00,,,0.01,,2013-04-11 22:13:00,
2013-04-11 17:23:00,33.0,12.0,29.92,NE,56,3.0,10.0,42,0.00,,,0.01,,2013-04-11 22:23:00,
2013-04-11 17:33:00,33.0,13.0,29.91,East,81,1.0,10.0,43,0.00,,,0.01,,2013-04-11 22:33:00,
2013-04-11 17:44:00,33.0,13.0,29.91,East,81,1.0,10.0,43,0.00,,,0.01,,2013-04-11 22:44:00,
2013-04-11 17:53:00,33.0,13.0,29.90,East,97,1.0,8.0,44,0.00,,,0.01,,2013-04-11 22:53:00,
2013-04-11 18:03:00,32.0,12.0,29.89,SE,124,3.0,8.0,43,0.00,,,0.01,,2013-04-11 23:03:00,
2013-04-11 18:12:00,32.0,12.0,29.89,SE,124,3.0,8.0,43,0.00,,,0.01,,2013-04-11 23:12:00,
2013-04-11 18:23:00,32.0,13.0,29.89,SE,124,1.0,8.0,45,0.00,,,0.01,,2013-04-11 23:23:00,
2013-04-11 18:32:00,32.0,13.0,29.90,NE,43,2.0,7.0,45,0.00,,,0.01,,2013-04-11 23:32:00,
2013-04-11 18:42:00,32.0,13.0,29.90,NE,43,2.0,7.0,45,0.00,,,0.01,,2013-04-11 23:42:00,
2013-04-11 18:53:00,31.0,15.0,29.90,ENE,75,4.0,10.0,51,0.00,,,0.01,,2013-04-11 23:53:00,
2013-04-11 19:02:00,30.0,18.0,29.89,East,85,5.0,14.0,60,0.00,,,0.01,,2013-04-12 00:02:00,
2013-04-11 19:12:00,30.0,18.0,29.89,East,85,5.0,14.0,60,0.00,,,0.01,,2013-04-12 00:12:00,
2013-04-11 19:22:00,30.0,18.0,29.90,ESE,115,2.0,10.0,60,0.00,,,0.01,,2013-04-12 00:22:00,
2013-04-11 19:32:00,30.0,17.0,29.91,South,173,2.0,5.0,58,0.00,,,0.01,,2013-04-12 00:32:00,
2013-04-11 19:42:00,30.0,17.0,29.91,South,173,2.0,5.0,58,0.00,,,0.01,,2013-04-12 00:42:00,
2013-04-11 19:53:00,30.0,18.0,29.91,East,87,0.0,5.0,60,0.00,,,0.01,,2013-04-12 00:53:00,
2013-04-11 20:02:00,30.0,17.0,29.93,ENE,76,2.0,5.0,58,0.00,,,0.01,,2013-04-12 01:02:00,
2013-04-11 20:12:00,30.0,17.0,29.93,ENE,76,2.0,5.0,58,0.00,,,0.01,,2013-04-12 01:12:00,
2013-04-11 20:22:00,29.0,20.0,29.93,East,81,1.0,4.0,69,0.00,,,0.01,,2013-04-12 01:22:00,
2013-04-11 20:32:00,27.0,22.0,29.92,NE,43,4.0,9.0,82,0.00,,,0.01,,2013-04-12 01:32:00,
2013-04-11 20:42:00,27.0,22.0,29.92,NE,43,4.0,9.0,82,0.00,,,0.01,,2013-04-12 01:42:00,
2013-04-11 20:52:00,26.0,23.0,29.90,NE,49,2.0,8.0,88,0.00,,,0.01,,2013-04-12 01:52:00,
2013-04-11 21:03:00,26.0,24.0,29.88,ENE,65,3.0,12.0,91,0.00,,,0.01,,2013-04-12 02:03:00,
2013-04-11 21:12:00,26.0,24.0,29.88,ENE,65,3.0,12.0,91,0.00,,,0.01,,2013-04-12 02:12:00,
2013-04-11 21:22:00,25.0,23.0,29.87,East,96,2.0,9.0,92,0.00,,,0.01,,2013-04-12 02:22:00,
2013-04-11 21:32:00,25.0,23.0,29.85,NNW,345,2.0,8.0,92,0.00,,,0.01,,2013-04-12 02:32:00,
2013-04-11 21:42:00,25.0,23.0,29.85,NNW,345,2.0,8.0,92,0.00,,,0.01,,2013-04-12 02:42:00,
2013-04-11 21:52:00,25.0,23.0,29.84,East,99,2.0,6.0,92,0.00,,,0.01,,2013-04-12 02:52:00,
2013-04-11 22:02:00,25.0,23.0,29.82,ENE,59,1.0,10.0,92,0.00,,,0.01,,2013-04-12 03:02:00,
2013-04-11 22:12:00,25.0,23.0,29.82,ENE,59,1.0,10.0,92,0.00,,,0.01,,2013-04-12 03:12:00,
2013-04-11 22:22:00,25.0,23.0,29.81,East,84,2.0,8.0,92,0.00,,,0.01,,2013-04-12 03:22:00,
2013-04-11 22:33:00,26.0,24.0,29.79,ENE,65,3.0,13.0,93,0.00,,,0.01,,2013-04-12 03:33:00,
2013-04-11 22:43:00,26.0,24.0,29.79,ENE,65,3.0,13.0,93,0.00,,,0.01,,2013-04-12 03:43:00,
2013-04-11 22:53:00,26.0,24.0,29.79,East,86,1.0,8.0,93,0.00,,,0.01,,2013-04-12 03:53:00,
2013-04-11 23:03:00,26.0,24.0,29.80,ESE,102,3.0,7.0,93,0.00,,,0.01,,2013-04-12 04:03:00,
2013-04-11 23:13:00,26.0,24.0,29.80,ESE,102,3.0,7.0,93,0.00,,,0.01,,2013-04-12 04:13:00,
2013-04-11 23:23:00,26.0,25.0,29.80,NE,39,2.0,6.0,94,0.00,,,0.01,,2013-04-12 04:23:00,
2013-04-11 23:33:00,26.0,25.0,29.80,North,9,1.0,6.0,94,0.00,,,0.01,,2013-04-12 04:33:00,
2013-04-11 23:43:00,26.0,25.0,29.80,North,9,1.0,6.0,94,0.00,,,0.01,,2013-04-12 04:43:00,
2013-04-11 23:53:00,26.0,25.0,29.79,NE,41,2.0,5.0,94,0.00,,,0.01,,2013-04-12 04:53:00,